Voltar ao catálogo

AAC-AIS-SAT2

AtivoCiênciaSSO
NORAD 56996·PAYLOAD·🇬🇧 United Kingdom

Lançado Jun 12, 2023 de Vandenberg Space Force Base

Loading…

Próximas Passagens (próximas 24 horas)

TLE

AtualizadoSource: Space-Track

Época: Sep 14, 2026, 22:32 UTC

1 56996U 23084BY  26257.93904716  .00003071  00000-0  34904-3 0  9997
2 56996  98.1616  40.0175 0056814 164.9002 195.3925 14.85886266166709

Acompanhe AAC-AIS-SAT2 em tempo real com AllMySat

Download on the App Store